Time,TemperatureF,DewpointF,PressureIn,WindDirection,WindDirectionDegrees,WindSpeedMPH,WindSpeedGustMPH,Humidity,HourlyPrecipIn,Conditions,Clouds,dailyrainin,SoftwareType,DateUTC
2013-04-15 00:00:00,44.1,16.7,29.89,North,0,4.0,7.2,33,0.00,,,0.00,WUHU216HW,2013-04-15 07:00:00,
2013-04-15 00:05:00,43.9,15.9,29.89,NW,315,1.8,5.6,32,0.00,,,0.00,WUHU216HW,2013-04-15 07:05:00,
2013-04-15 00:06:00,43.9,15.9,29.89,North,0,4.7,5.6,32,0.00,,,0.00,WUHU216HW,2013-04-15 07:06:00,
2013-04-15 00:12:00,43.9,15.1,29.88,NNW,338,4.0,6.9,31,0.00,,,0.00,WUHU216HW,2013-04-15 07:12:00,
2013-04-15 00:18:00,44.3,13.9,29.88,NNW,338,4.3,8.5,29,0.00,,,0.00,WUHU216HW,2013-04-15 07:18:00,
2013-04-15 00:24:00,44.5,14.0,29.88,WNW,293,3.8,7.4,29,0.00,,,0.00,WUHU216HW,2013-04-15 07:24:00,
2013-04-15 00:30:00,44.5,13.1,29.88,West,270,3.4,6.0,28,0.00,,,0.00,WUHU216HW,2013-04-15 07:30:00,
2013-04-15 00:41:00,44.5,12.2,29.89,NW,315,5.1,7.4,27,0.00,,,0.00,WUHU216HW,2013-04-15 07:41:00,
2013-04-15 00:46:00,44.6,9.7,29.89,NW,315,4.5,8.5,24,0.00,,,0.00,WUHU216HW,2013-04-15 07:46:00,
2013-04-15 00:48:00,44.6,8.8,29.88,West,270,6.7,8.5,23,0.00,,,0.00,WUHU216HW,2013-04-15 07:48:00,
2013-04-15 00:49:00,44.6,9.7,29.88,NNW,338,2.9,8.5,24,0.00,,,0.00,WUHU216HW,2013-04-15 07:49:00,
2013-04-15 00:51:00,44.6,9.7,29.89,WNW,293,8.1,8.5,24,0.00,,,0.00,WUHU216HW,2013-04-15 07:51:00,
2013-04-15 00:56:00,44.6,8.8,29.88,North,0,3.1,9.8,23,0.00,,,0.00,WUHU216HW,2013-04-15 07:56:00,
2013-04-15 01:01:00,44.8,8.1,29.88,NNE,23,5.1,9.8,22,0.00,,,0.00,WUHU216HW,2013-04-15 08:01:00,
2013-04-15 01:06:00,44.8,8.1,29.88,North,0,2.5,8.3,22,0.00,,,0.00,WUHU216HW,2013-04-15 08:06:00,
2013-04-15 01:11:00,44.8,7.2,29.88,NW,315,4.7,9.8,21,0.00,,,0.00,WUHU216HW,2013-04-15 08:11:00,
2013-04-15 01:16:00,45.0,7.3,29.88,NNW,338,5.4,9.8,21,0.00,,,0.00,WUHU216HW,2013-04-15 08:16:00,
2013-04-15 01:21:00,45.0,7.3,29.88,North,0,5.1,7.2,21,0.00,,,0.00,WUHU216HW,2013-04-15 08:21:00,
2013-04-15 01:26:00,45.0,6.4,29.88,North,0,5.4,6.3,20,0.00,,,0.00,WUHU216HW,2013-04-15 08:26:00,
2013-04-15 01:32:00,45.0,7.3,29.88,WSW,248,4.5,6.5,21,0.00,,,0.00,WUHU216HW,2013-04-15 08:32:00,
2013-04-15 01:35:00,45.0,7.3,29.88,WNW,293,3.8,6.5,21,0.00,,,0.00,WUHU216HW,2013-04-15 08:35:00,
2013-04-15 01:40:00,44.6,7.0,29.88,NNE,23,2.2,6.5,21,0.00,,,0.00,WUHU216HW,2013-04-15 08:40:00,
2013-04-15 01:45:00,44.6,7.0,29.87,West,270,6.3,6.3,21,0.00,,,0.00,WUHU216HW,2013-04-15 08:45:00,
2013-04-15 01:50:00,44.5,6.8,29.87,WNW,293,1.1,6.3,21,0.00,,,0.00,WUHU216HW,2013-04-15 08:50:00,
2013-04-15 01:55:00,44.3,7.6,29.87,WNW,293,2.5,6.3,22,0.00,,,0.00,WUHU216HW,2013-04-15 08:55:00,
2013-04-15 02:00:00,44.3,7.6,29.87,WNW,293,1.8,5.4,22,0.00,,,0.00,WUHU216HW,2013-04-15 09:00:00,
2013-04-15 02:05:00,44.3,7.6,29.87,WNW,293,4.0,5.4,22,0.00,,,0.00,WUHU216HW,2013-04-15 09:05:00,
2013-04-15 02:10:00,44.1,7.5,29.86,WNW,293,2.0,4.9,22,0.00,,,0.00,WUHU216HW,2013-04-15 09:10:00,
2013-04-15 02:15:00,43.9,8.2,29.86,SW,225,1.6,4.9,23,0.00,,,0.00,WUHU216HW,2013-04-15 09:15:00,
2013-04-15 02:20:00,43.7,8.0,29.86,NW,315,3.4,5.4,23,0.00,,,0.00,WUHU216HW,2013-04-15 09:20:00,
2013-04-15 02:25:00,43.6,7.8,29.87,NW,315,1.6,5.4,23,0.00,,,0.00,WUHU216HW,2013-04-15 09:25:00,
2013-04-15 02:30:00,43.6,7.8,29.86,West,270,2.0,4.7,23,0.00,,,0.00,WUHU216HW,2013-04-15 09:30:00,
2013-04-15 02:35:00,43.4,7.7,29.86,West,270,1.8,4.3,23,0.00,,,0.00,WUHU216HW,2013-04-15 09:35:00,
2013-04-15 02:40:00,43.2,8.5,29.86,WNW,293,3.1,4.7,24,0.00,,,0.00,WUHU216HW,2013-04-15 09:40:00,
2013-04-15 02:45:00,43.2,8.5,29.86,West,270,2.0,5.1,24,0.00,,,0.00,WUHU216HW,2013-04-15 09:45:00,
2013-04-15 02:50:00,43.2,8.5,29.86,WNW,293,2.2,6.0,24,0.00,,,0.00,WUHU216HW,2013-04-15 09:50:00,
2013-04-15 02:55:00,43.2,8.5,29.86,North,0,1.8,6.3,24,0.00,,,0.00,WUHU216HW,2013-04-15 09:55:00,
2013-04-15 03:00:00,43.2,8.5,29.86,West,270,1.3,6.3,24,0.00,,,0.00,WUHU216HW,2013-04-15 10:00:00,
2013-04-15 03:05:00,43.2,8.5,29.86,NNW,338,2.5,3.8,24,0.00,,,0.00,WUHU216HW,2013-04-15 10:05:00,
2013-04-15 03:10:00,43.2,8.5,29.86,NNE,23,2.0,4.0,24,0.00,,,0.00,WUHU216HW,2013-04-15 10:10:00,
2013-04-15 03:15:00,43.2,9.4,29.86,WNW,293,4.0,7.4,25,0.00,,,0.00,WUHU216HW,2013-04-15 10:15:00,
2013-04-15 03:20:00,43.4,9.5,29.86,West,270,1.3,7.4,25,0.00,,,0.00,WUHU216HW,2013-04-15 10:20:00,
2013-04-15 03:25:00,43.6,9.6,29.86,NW,315,2.9,6.5,25,0.00,,,0.00,WUHU216HW,2013-04-15 10:25:00,
2013-04-15 03:30:00,43.6,10.5,29.85,WNW,293,1.1,5.4,26,0.00,,,0.00,WUHU216HW,2013-04-15 10:30:00,
2013-04-15 03:35:00,43.6,10.5,29.85,NW,315,3.4,5.4,26,0.00,,,0.00,WUHU216HW,2013-04-15 10:35:00,
2013-04-15 03:40:00,43.6,11.4,29.85,WNW,293,1.6,6.7,27,0.00,,,0.00,WUHU216HW,2013-04-15 10:40:00,
2013-04-15 03:45:00,43.7,11.6,29.85,West,270,4.7,6.7,27,0.00,,,0.00,WUHU216HW,2013-04-15 10:45:00,
2013-04-15 03:50:00,43.6,11.4,29.85,WNW,293,2.9,6.3,27,0.00,,,0.00,WUHU216HW,2013-04-15 10:50:00,
2013-04-15 03:55:00,43.6,11.4,29.85,WNW,293,3.4,6.3,27,0.00,,,0.00,WUHU216HW,2013-04-15 10:55:00,
2013-04-15 04:00:00,43.6,12.3,29.85,WNW,293,1.8,6.5,28,0.00,,,0.00,WUHU216HW,2013-04-15 11:00:00,
2013-04-15 04:05:00,43.6,13.2,29.85,North,0,4.9,8.9,29,0.00,,,0.00,WUHU216HW,2013-04-15 11:05:00,
2013-04-15 04:10:00,43.7,14.3,29.85,WSW,248,5.4,8.9,30,0.00,,,0.00,WUHU216HW,2013-04-15 11:10:00,
2013-04-15 04:15:00,43.9,13.6,29.85,WNW,293,4.0,7.6,29,0.00,,,0.00,WUHU216HW,2013-04-15 11:15:00,
2013-04-15 04:20:00,43.9,13.6,29.85,WSW,248,5.6,7.2,29,0.00,,,0.00,WUHU216HW,2013-04-15 11:20:00,
2013-04-15 04:25:00,43.9,14.5,29.85,WNW,293,3.4,6.3,30,0.00,,,0.00,WUHU216HW,2013-04-15 11:25:00,
2013-04-15 04:30:00,43.7,14.9,29.85,WNW,293,1.8,6.5,31,0.00,,,0.00,WUHU216HW,2013-04-15 11:30:00,
2013-04-15 04:35:00,43.7,14.9,29.85,WNW,293,3.4,6.5,31,0.00,,,0.00,WUHU216HW,2013-04-15 11:35:00,
2013-04-15 04:40:00,43.6,14.9,29.85,WNW,293,2.0,5.8,31,0.00,,,0.00,WUHU216HW,2013-04-15 11:40:00,
2013-04-15 04:45:00,43.6,15.5,29.84,NW,315,5.1,6.7,32,0.00,,,0.00,WUHU216HW,2013-04-15 11:45:00,
2013-04-15 04:50:00,43.6,15.5,29.84,WNW,293,4.3,6.7,32,0.00,,,0.00,WUHU216HW,2013-04-15 11:50:00,
2013-04-15 04:55:00,43.6,15.5,29.84,NW,315,2.2,6.9,32,0.00,,,0.00,WUHU216HW,2013-04-15 11:55:00,
2013-04-15 05:00:00,43.6,15.5,29.84,WSW,248,3.4,6.9,32,0.00,,,0.00,WUHU216HW,2013-04-15 12:00:00,
2013-04-15 05:05:00,43.4,15.3,29.84,West,270,2.7,5.1,32,0.00,,,0.00,WUHU216HW,2013-04-15 12:05:00,
2013-04-15 05:10:00,43.2,14.5,29.84,West,270,4.7,4.9,31,0.00,,,0.00,WUHU216HW,2013-04-15 12:10:00,
2013-04-15 05:15:00,43.0,15.0,29.84,WNW,293,2.7,6.7,32,0.00,,,0.00,WUHU216HW,2013-04-15 12:15:00,
2013-04-15 05:20:00,42.8,14.9,29.84,WNW,293,7.6,7.6,32,0.00,,,0.00,WUHU216HW,2013-04-15 12:20:00,
2013-04-15 05:25:00,42.8,14.9,29.83,WNW,293,2.7,7.6,32,0.00,,,0.00,WUHU216HW,2013-04-15 12:25:00,
2013-04-15 05:30:00,42.7,14.7,29.84,WNW,293,2.7,6.3,32,0.00,,,0.00,WUHU216HW,2013-04-15 12:30:00,
2013-04-15 05:35:00,42.5,15.2,29.83,NW,315,4.0,6.3,33,0.00,,,0.00,WUHU216HW,2013-04-15 12:35:00,
2013-04-15 05:40:00,42.5,14.6,29.84,WSW,248,2.5,6.3,32,0.00,,,0.00,WUHU216HW,2013-04-15 12:40:00,
2013-04-15 05:45:00,42.5,14.6,29.83,WSW,248,3.8,6.3,32,0.00,,,0.00,WUHU216HW,2013-04-15 12:45:00,
2013-04-15 05:50:00,42.3,14.4,29.84,West,270,6.3,7.4,32,0.00,,,0.00,WUHU216HW,2013-04-15 12:50:00,
2013-04-15 05:55:00,42.1,14.2,29.84,West,270,5.6,7.4,32,0.00,,,0.00,WUHU216HW,2013-04-15 12:55:00,
2013-04-15 06:01:00,42.1,13.6,29.83,WNW,293,6.0,7.4,31,0.00,,,0.00,WUHU216HW,2013-04-15 13:01:00,
2013-04-15 06:06:00,41.9,13.4,29.84,West,270,2.5,6.7,31,0.00,,,0.00,WUHU216HW,2013-04-15 13:06:00,
2013-04-15 06:11:00,41.8,13.3,29.84,WSW,248,3.6,4.9,31,0.00,,,0.00,WUHU216HW,2013-04-15 13:11:00,
2013-04-15 06:16:00,41.6,13.1,29.84,SW,225,2.9,6.3,31,0.00,,,0.00,WUHU216HW,2013-04-15 13:16:00,
2013-04-15 06:21:00,41.4,12.3,29.84,NW,315,4.9,6.9,30,0.00,,,0.00,WUHU216HW,2013-04-15 13:21:00,
2013-04-15 06:27:00,41.4,12.3,29.84,NNW,338,2.9,6.9,30,0.00,,,0.00,WUHU216HW,2013-04-15 13:27:00,
2013-04-15 06:32:00,41.4,11.4,29.84,WNW,293,1.8,4.9,29,0.00,,,0.00,WUHU216HW,2013-04-15 13:32:00,
2013-04-15 06:37:00,41.4,11.4,29.84,West,270,3.1,6.5,29,0.00,,,0.00,WUHU216HW,2013-04-15 13:37:00,
2013-04-15 06:42:00,41.4,11.4,29.84,WNW,293,3.4,6.5,29,0.00,,,0.00,WUHU216HW,2013-04-15 13:42:00,
2013-04-15 06:47:00,41.4,10.5,29.84,WNW,293,3.1,5.8,28,0.00,,,0.00,WUHU216HW,2013-04-15 13:47:00,
2013-04-15 06:52:00,41.6,10.7,29.84,West,270,3.1,6.0,28,0.00,,,0.00,WUHU216HW,2013-04-15 13:52:00,
2013-04-15 06:57:00,41.9,10.1,29.84,NW,315,1.8,6.0,27,0.00,,,0.00,WUHU216HW,2013-04-15 13:57:00,
2013-04-15 07:03:00,42.3,7.7,29.84,WNW,293,2.7,6.0,24,0.00,,,0.00,WUHU216HW,2013-04-15 14:03:00,
2013-04-15 07:08:00,42.8,7.2,29.85,WSW,248,4.7,6.5,23,0.00,,,0.00,WUHU216HW,2013-04-15 14:08:00,
2013-04-15 07:13:00,43.2,6.7,29.85,WNW,293,6.0,6.5,22,0.00,,,0.00,WUHU216HW,2013-04-15 14:13:00,
2013-04-15 07:18:00,43.6,6.0,29.85,NW,315,3.4,6.3,21,0.00,,,0.00,WUHU216HW,2013-04-15 14:18:00,
2013-04-15 07:23:00,43.9,7.3,29.85,NNW,338,2.9,6.0,22,0.00,,,0.00,WUHU216HW,2013-04-15 14:23:00,
2013-04-15 07:28:00,44.3,6.7,29.85,NNE,23,3.6,5.6,21,0.00,,,0.00,WUHU216HW,2013-04-15 14:28:00,
2013-04-15 07:33:00,44.5,6.8,29.85,WNW,293,0.7,5.6,21,0.00,,,0.00,WUHU216HW,2013-04-15 14:33:00,
2013-04-15 07:38:00,44.8,7.2,29.86,NNW,338,2.2,6.3,21,0.00,,,0.00,WUHU216HW,2013-04-15 14:38:00,
2013-04-15 07:43:00,45.0,6.4,29.86,NNW,338,2.5,7.4,20,0.00,,,0.00,WUHU216HW,2013-04-15 14:43:00,
2013-04-15 07:48:00,45.2,6.6,29.86,NNE,23,2.2,7.4,20,0.00,,,0.00,WUHU216HW,2013-04-15 14:48:00,
2013-04-15 07:53:00,45.5,5.4,29.86,NW,315,5.4,6.0,19,0.00,,,0.00,WUHU216HW,2013-04-15 14:53:00,
2013-04-15 07:58:00,45.7,4.1,29.86,NNW,338,7.4,9.8,18,0.00,,,0.00,WUHU216HW,2013-04-15 14:58:00,
2013-04-15 08:03:00,46.1,4.3,29.85,NNW,338,2.5,9.8,18,0.00,,,0.00,WUHU216HW,2013-04-15 15:03:00,
2013-04-15 08:08:00,46.6,3.2,29.86,North,0,1.6,7.4,17,0.00,,,0.00,WUHU216HW,2013-04-15 15:08:00,
2013-04-15 08:13:00,47.2,2.3,29.85,NNW,338,6.7,7.2,16,0.00,,,0.00,WUHU216HW,2013-04-15 15:13:00,
2013-04-15 08:18:00,47.7,2.7,29.86,NNW,338,3.6,7.2,16,0.00,,,0.00,WUHU216HW,2013-04-15 15:18:00,
2013-04-15 08:23:00,48.2,0.2,29.86,West,270,4.0,7.8,14,0.00,,,0.00,WUHU216HW,2013-04-15 15:23:00,
2013-04-15 08:28:00,48.6,0.5,29.86,NW,315,3.6,8.3,14,0.00,,,0.00,WUHU216HW,2013-04-15 15:28:00,
2013-04-15 08:33:00,49.1,-0.6,29.86,NNE,23,6.7,9.6,13,0.00,,,0.00,WUHU216HW,2013-04-15 15:33:00,
2013-04-15 08:38:00,49.7,-1.7,29.86,NE,45,4.3,9.6,12,0.00,,,0.00,WUHU216HW,2013-04-15 15:38:00,
2013-04-15 08:43:00,50.2,-1.3,29.86,North,0,5.6,7.6,12,0.00,,,0.00,WUHU216HW,2013-04-15 15:43:00,
2013-04-15 08:48:00,50.8,-0.9,29.86,WNW,293,3.4,7.4,12,0.00,,,0.00,WUHU216HW,2013-04-15 15:48:00,
2013-04-15 08:53:00,51.1,-0.6,29.87,West,270,4.0,7.4,12,0.00,,,0.00,WUHU216HW,2013-04-15 15:53:00,
2013-04-15 08:58:00,51.5,-0.4,29.87,North,0,8.5,8.5,12,0.00,,,0.00,WUHU216HW,2013-04-15 15:58:00,
2013-04-15 09:03:00,51.8,0.0,29.87,North,0,4.0,8.5,12,0.00,,,0.00,WUHU216HW,2013-04-15 16:03:00,
2013-04-15 09:09:00,52.0,0.1,29.87,NW,315,5.4,9.2,12,0.00,,,0.00,WUHU216HW,2013-04-15 16:09:00,
2013-04-15 09:14:00,52.2,0.3,29.87,NE,45,4.9,9.2,12,0.00,,,0.00,WUHU216HW,2013-04-15 16:14:00,
2013-04-15 09:19:00,52.4,-1.1,29.87,NNE,23,4.5,8.9,11,0.00,,,0.00,WUHU216HW,2013-04-15 16:19:00,
2013-04-15 09:24:00,52.9,-0.7,29.87,North,0,12.5,12.5,11,0.00,,,0.00,WUHU216HW,2013-04-15 16:24:00,
2013-04-15 09:29:00,53.1,1.0,29.86,North,0,4.3,12.5,12,0.00,,,0.00,WUHU216HW,2013-04-15 16:29:00,
2013-04-15 09:34:00,53.5,-0.3,29.87,WNW,293,4.9,12.5,11,0.00,,,0.00,WUHU216HW,2013-04-15 16:34:00,
2013-04-15 09:39:00,53.8,0.0,29.87,NNW,338,3.4,6.3,11,0.00,,,0.00,WUHU216HW,2013-04-15 16:39:00,
2013-04-15 09:44:00,54.2,0.4,29.87,NNW,338,3.1,6.7,11,0.00,,,0.00,WUHU216HW,2013-04-15 16:44:00,
2013-04-15 09:49:00,54.4,-1.1,29.87,WNW,293,2.9,13.0,10,0.00,,,0.00,WUHU216HW,2013-04-15 16:49:00,
2013-04-15 09:54:00,54.5,0.6,29.87,North,0,5.1,13.0,11,0.00,,,0.00,WUHU216HW,2013-04-15 16:54:00,
2013-04-15 09:59:00,54.7,0.8,29.87,NNE,23,3.8,6.9,11,0.00,,,0.00,WUHU216HW,2013-04-15 16:59:00,
2013-04-15 10:04:00,55.3,1.2,29.87,WNW,293,2.7,6.9,11,0.00,,,0.00,WUHU216HW,2013-04-15 17:04:00,
2013-04-15 10:09:00,55.8,1.6,29.87,NW,315,5.1,6.9,11,0.00,,,0.00,WUHU216HW,2013-04-15 17:09:00,
2013-04-15 10:14:00,55.8,1.6,29.87,WNW,293,4.0,7.6,11,0.00,,,0.00,WUHU216HW,2013-04-15 17:14:00,
2013-04-15 10:19:00,56.2,3.4,29.86,North,0,2.5,7.6,12,0.00,,,0.00,WUHU216HW,2013-04-15 17:19:00,
2013-04-15 10:21:00,56.2,3.4,29.86,WNW,293,3.4,6.0,12,0.00,,,0.00,WUHU216HW,2013-04-15 17:21:00,
2013-04-15 10:25:00,56.3,3.5,29.87,West,270,7.4,11.4,12,0.00,,,0.00,WUHU216HW,2013-04-15 17:25:00,
2013-04-15 10:30:00,56.5,3.7,29.87,North,0,5.4,11.4,12,0.00,,,0.00,WUHU216HW,2013-04-15 17:30:00,
2013-04-15 10:35:00,56.5,3.7,29.87,NNE,23,3.4,8.3,12,0.00,,,0.00,WUHU216HW,2013-04-15 17:35:00,
2013-04-15 10:40:00,56.5,3.7,29.87,North,0,4.7,7.6,12,0.00,,,0.00,WUHU216HW,2013-04-15 17:40:00,
2013-04-15 10:45:00,56.5,2.2,29.87,WNW,293,3.6,7.6,11,0.00,,,0.00,WUHU216HW,2013-04-15 17:45:00,
2013-04-15 10:50:00,56.5,2.2,29.87,WNW,293,1.8,10.5,11,0.00,,,0.00,WUHU216HW,2013-04-15 17:50:00,
2013-04-15 10:55:00,56.5,3.7,29.88,West,270,3.4,10.5,12,0.00,,,0.00,WUHU216HW,2013-04-15 17:55:00,
2013-04-15 11:00:00,56.9,4.0,29.88,NW,315,6.3,8.9,12,0.00,,,0.00,WUHU216HW,2013-04-15 18:00:00,
2013-04-15 11:05:00,56.9,4.0,29.88,North,0,5.8,8.5,12,0.00,,,0.00,WUHU216HW,2013-04-15 18:05:00,
2013-04-15 11:10:00,56.9,2.3,29.88,NNE,23,6.5,8.5,11,0.00,,,0.00,WUHU216HW,2013-04-15 18:10:00,
2013-04-15 11:15:00,56.9,4.0,29.88,North,0,6.3,7.8,12,0.00,,,0.00,WUHU216HW,2013-04-15 18:15:00,
2013-04-15 11:20:00,57.1,4.1,29.88,WNW,293,4.5,7.8,12,0.00,,,0.00,WUHU216HW,2013-04-15 18:20:00,
2013-04-15 11:25:00,57.4,4.3,29.88,NNE,23,3.4,7.8,12,0.00,,,0.00,WUHU216HW,2013-04-15 18:25:00,
2013-04-15 11:29:00,57.6,4.5,29.88,NNE,23,5.6,7.8,12,0.00,,,0.00,WUHU216HW,2013-04-15 18:29:00,
2013-04-15 11:34:00,58.0,4.8,29.88,WNW,293,2.2,9.6,12,0.00,,,0.00,WUHU216HW,2013-04-15 18:34:00,
2013-04-15 11:39:00,58.0,6.3,29.88,North,0,2.7,9.6,13,0.00,,,0.00,WUHU216HW,2013-04-15 18:39:00,
2013-04-15 11:44:00,58.5,6.8,29.88,SW,225,1.1,5.4,13,0.00,,,0.00,WUHU216HW,2013-04-15 18:44:00,
2013-04-15 11:49:00,58.9,7.0,29.88,NE,45,3.6,6.7,13,0.00,,,0.00,WUHU216HW,2013-04-15 18:49:00,
2013-04-15 11:54:00,59.0,10.3,29.88,WNW,293,2.9,6.7,15,0.00,,,0.00,WUHU216HW,2013-04-15 18:54:00,
2013-04-15 11:59:00,59.2,7.3,29.88,North,0,5.6,8.5,13,0.00,,,0.00,WUHU216HW,2013-04-15 18:59:00,
2013-04-15 12:04:00,59.4,10.5,29.88,NNW,338,4.3,8.5,15,0.00,,,0.00,WUHU216HW,2013-04-15 19:04:00,
2013-04-15 12:09:00,59.4,7.5,29.88,North,0,3.4,8.3,13,0.00,,,0.00,WUHU216HW,2013-04-15 19:09:00,
2013-04-15 12:14:00,59.8,10.9,29.88,North,0,5.8,7.6,15,0.00,,,0.00,WUHU216HW,2013-04-15 19:14:00,
2013-04-15 12:19:00,60.1,11.2,29.88,North,0,2.9,7.6,15,0.00,,,0.00,WUHU216HW,2013-04-15 19:19:00,
2013-04-15 12:24:00,60.3,6.7,29.88,NW,315,5.6,8.9,12,0.00,,,0.00,WUHU216HW,2013-04-15 19:24:00,
2013-04-15 12:29:00,60.5,8.4,29.88,North,0,4.0,8.9,13,0.00,,,0.00,WUHU216HW,2013-04-15 19:29:00,
2013-04-15 12:34:00,60.7,8.6,29.88,NNW,338,4.7,8.3,13,0.00,,,0.00,WUHU216HW,2013-04-15 19:34:00,
2013-04-15 12:39:00,60.8,8.6,29.88,WNW,293,4.3,8.3,13,0.00,,,0.00,WUHU216HW,2013-04-15 19:39:00,
2013-04-15 12:44:00,61.0,7.2,29.88,East,90,5.8,6.7,12,0.00,,,0.00,WUHU216HW,2013-04-15 19:44:00,
2013-04-15 12:49:00,61.0,7.2,29.88,West,270,7.6,7.6,12,0.00,,,0.00,WUHU216HW,2013-04-15 19:49:00,
2013-04-15 12:54:00,60.8,8.6,29.88,North,0,4.5,7.6,13,0.00,,,0.00,WUHU216HW,2013-04-15 19:54:00,
2013-04-15 12:57:00,60.5,11.5,29.88,West,270,1.8,7.6,15,0.00,,,0.00,WUHU216HW,2013-04-15 19:57:00,
2013-04-15 13:02:00,60.7,11.6,29.88,NNW,338,1.1,7.2,15,0.00,,,0.00,WUHU216HW,2013-04-15 20:02:00,
2013-04-15 13:07:00,61.2,7.4,29.88,North,0,2.5,5.8,12,0.00,,,0.00,WUHU216HW,2013-04-15 20:07:00,
2013-04-15 13:12:00,61.6,7.7,29.88,West,270,2.2,8.1,12,0.00,,,0.00,WUHU216HW,2013-04-15 20:12:00,
2013-04-15 13:17:00,62.1,8.1,29.88,WNW,293,3.6,8.1,12,0.00,,,0.00,WUHU216HW,2013-04-15 20:17:00,
2013-04-15 13:22:00,62.3,8.3,29.88,North,0,7.2,7.6,12,0.00,,,0.00,WUHU216HW,2013-04-15 20:22:00,
2013-04-15 13:27:00,62.3,9.8,29.88,NW,315,4.9,7.6,13,0.00,,,0.00,WUHU216HW,2013-04-15 20:27:00,
2013-04-15 13:32:00,62.3,9.8,29.88,NW,315,3.1,8.3,13,0.00,,,0.00,WUHU216HW,2013-04-15 20:32:00,
2013-04-15 13:37:00,61.2,12.1,29.88,WNW,293,4.3,8.3,15,0.00,,,0.00,WUHU216HW,2013-04-15 20:37:00,
2013-04-15 13:42:00,60.7,16.3,29.88,NNE,23,10.5,10.5,18,0.00,,,0.00,WUHU216HW,2013-04-15 20:42:00,
2013-04-15 13:47:00,60.1,14.3,29.88,North,0,3.4,10.5,17,0.00,,,0.00,WUHU216HW,2013-04-15 20:47:00,
2013-04-15 13:52:00,60.1,12.8,29.88,NW,315,6.0,10.5,16,0.00,,,0.00,WUHU216HW,2013-04-15 20:52:00,
2013-04-15 13:57:00,59.8,14.0,29.88,WSW,248,5.4,7.6,17,0.00,,,0.00,WUHU216HW,2013-04-15 20:57:00,
2013-04-15 14:02:00,59.6,15.4,29.88,NW,315,2.0,7.6,18,0.00,,,0.00,WUHU216HW,2013-04-15 21:02:00,
2013-04-15 14:07:00,59.4,16.7,29.88,North,0,1.8,7.6,19,0.00,,,0.00,WUHU216HW,2013-04-15 21:07:00,
2013-04-15 14:12:00,59.2,16.7,29.88,NW,315,6.0,8.1,19,0.00,,,0.00,WUHU216HW,2013-04-15 21:12:00,
2013-04-15 14:17:00,59.0,19.0,29.88,WNW,293,5.8,8.1,21,0.00,,,0.00,WUHU216HW,2013-04-15 21:17:00,
2013-04-15 14:22:00,58.7,17.7,29.88,WNW,293,3.4,8.9,20,0.00,,,0.00,WUHU216HW,2013-04-15 21:22:00,
2013-04-15 14:27:00,58.5,17.6,29.88,WNW,293,3.8,8.9,20,0.00,,,0.00,WUHU216HW,2013-04-15 21:27:00,
2013-04-15 14:32:00,58.3,18.4,29.88,NNW,338,3.1,8.9,21,0.00,,,0.00,WUHU216HW,2013-04-15 21:32:00,
2013-04-15 14:37:00,58.0,19.1,29.88,NW,315,2.2,8.9,22,0.00,,,0.00,WUHU216HW,2013-04-15 21:37:00,
2013-04-15 14:42:00,57.8,18.9,29.87,North,0,4.0,10.5,22,0.00,,,0.00,WUHU216HW,2013-04-15 21:42:00,
2013-04-15 14:47:00,57.1,18.4,29.87,North,0,2.0,10.7,22,0.00,,,0.00,WUHU216HW,2013-04-15 21:47:00,
2013-04-15 14:52:00,56.7,19.9,29.87,NNW,338,6.0,10.7,24,0.00,,,0.00,WUHU216HW,2013-04-15 21:52:00,
2013-04-15 14:57:00,56.5,17.9,29.87,North,0,2.7,7.6,22,0.00,,,0.00,WUHU216HW,2013-04-15 21:57:00,
2013-04-15 15:02:00,56.9,17.2,29.87,North,0,4.3,7.8,21,0.00,,,0.00,WUHU216HW,2013-04-15 22:02:00,
2013-04-15 15:07:00,56.7,16.1,29.87,NNW,338,6.3,7.8,20,0.00,,,0.00,WUHU216HW,2013-04-15 22:07:00,
2013-04-15 15:12:00,56.5,12.9,29.87,WNW,293,2.7,9.2,18,0.00,,,0.00,WUHU216HW,2013-04-15 22:12:00,
2013-04-15 15:17:00,56.3,12.8,29.87,North,0,4.9,9.2,18,0.00,,,0.00,WUHU216HW,2013-04-15 22:17:00,
2013-04-15 15:22:00,55.8,12.3,29.87,North,0,4.0,7.2,18,0.00,,,0.00,WUHU216HW,2013-04-15 22:22:00,
2013-04-15 15:27:00,55.8,15.4,29.86,North,0,1.1,9.8,20,0.00,,,0.00,WUHU216HW,2013-04-15 22:27:00,
2013-04-15 15:32:00,55.8,15.4,29.86,North,0,3.4,9.8,20,0.00,,,0.00,WUHU216HW,2013-04-15 22:32:00,
2013-04-15 15:37:00,55.8,15.4,29.86,North,0,4.9,7.6,20,0.00,,,0.00,WUHU216HW,2013-04-15 22:37:00,
2013-04-15 15:42:00,55.4,15.1,29.86,NW,315,2.0,6.9,20,0.00,,,0.00,WUHU216HW,2013-04-15 22:42:00,
2013-04-15 15:47:00,55.6,15.3,29.86,North,0,4.0,8.1,20,0.00,,,0.00,WUHU216HW,2013-04-15 22:47:00,
2013-04-15 15:52:00,55.8,15.4,29.86,NNE,23,6.3,8.1,20,0.00,,,0.00,WUHU216HW,2013-04-15 22:52:00,
2013-04-15 15:57:00,55.8,15.4,29.86,West,270,2.9,6.9,20,0.00,,,0.00,WUHU216HW,2013-04-15 22:57:00,
2013-04-15 16:02:00,55.8,15.4,29.86,WNW,293,5.6,6.9,20,0.00,,,0.00,WUHU216HW,2013-04-15 23:02:00,
2013-04-15 16:07:00,56.0,16.5,29.86,WNW,293,4.0,9.4,21,0.00,,,0.00,WUHU216HW,2013-04-15 23:07:00,
2013-04-15 16:12:00,56.2,16.7,29.86,NNE,23,2.5,9.4,21,0.00,,,0.00,WUHU216HW,2013-04-15 23:12:00,
2013-04-15 16:17:00,56.0,16.5,29.85,North,0,6.7,8.7,21,0.00,,,0.00,WUHU216HW,2013-04-15 23:17:00,
2013-04-15 16:22:00,55.6,17.1,29.85,WSW,248,1.6,8.7,22,0.00,,,0.00,WUHU216HW,2013-04-15 23:22:00,
2013-04-15 16:27:00,55.6,16.2,29.85,North,0,4.0,6.9,21,0.00,,,0.00,WUHU216HW,2013-04-15 23:27:00,
2013-04-15 16:32:00,55.8,16.4,29.85,NW,315,4.0,5.8,21,0.00,,,0.00,WUHU216HW,2013-04-15 23:32:00,
2013-04-15 16:37:00,55.8,17.3,29.85,West,270,3.6,5.4,22,0.00,,,0.00,WUHU216HW,2013-04-15 23:37:00,
2013-04-15 16:42:00,56.0,17.5,29.85,NNW,338,4.7,4.9,22,0.00,,,0.00,WUHU216HW,2013-04-15 23:42:00,
2013-04-15 16:47:00,55.8,16.4,29.85,NNW,338,3.6,6.9,21,0.00,,,0.00,WUHU216HW,2013-04-15 23:47:00,
2013-04-15 16:52:00,55.8,16.4,29.85,NNW,338,4.9,6.9,21,0.00,,,0.00,WUHU216HW,2013-04-15 23:52:00,
2013-04-15 16:57:00,55.4,16.0,29.85,West,270,6.3,6.3,21,0.00,,,0.00,WUHU216HW,2013-04-15 23:57:00,
2013-04-15 17:02:00,55.1,14.8,29.85,West,270,3.4,6.3,20,0.00,,,0.00,WUHU216HW,2013-04-16 00:02:00,
2013-04-15 17:07:00,55.1,14.8,29.85,West,270,2.5,6.0,20,0.00,,,0.00,WUHU216HW,2013-04-16 00:07:00,
2013-04-15 17:12:00,54.9,15.6,29.85,NNW,338,2.9,6.7,21,0.00,,,0.00,WUHU216HW,2013-04-16 00:12:00,
2013-04-15 17:17:00,54.7,15.4,29.85,SW,225,3.4,6.7,21,0.00,,,0.00,WUHU216HW,2013-04-16 00:17:00,
2013-04-15 17:22:00,54.7,14.5,29.85,North,0,4.3,6.3,20,0.00,,,0.00,WUHU216HW,2013-04-16 00:22:00,
2013-04-15 17:27:00,54.5,14.3,29.85,NNW,338,2.2,6.0,20,0.00,,,0.00,WUHU216HW,2013-04-16 00:27:00,
2013-04-15 17:32:00,54.4,14.1,29.85,NW,315,1.8,6.7,20,0.00,,,0.00,WUHU216HW,2013-04-16 00:32:00,
2013-04-15 17:37:00,54.4,12.6,29.85,NNW,338,6.7,6.7,19,0.00,,,0.00,WUHU216HW,2013-04-16 00:37:00,
2013-04-15 17:42:00,54.4,11.1,29.85,NNW,338,1.8,6.7,18,0.00,,,0.00,WUHU216HW,2013-04-16 00:42:00,
2013-04-15 17:47:00,54.2,11.0,29.85,West,270,2.5,6.7,18,0.00,,,0.00,WUHU216HW,2013-04-16 00:47:00,
2013-04-15 17:52:00,53.8,10.6,29.85,WNW,293,6.9,6.9,18,0.00,,,0.00,WUHU216HW,2013-04-16 00:52:00,
2013-04-15 17:57:00,53.6,10.4,29.85,NW,315,4.0,7.8,18,0.00,,,0.00,WUHU216HW,2013-04-16 00:57:00,
2013-04-15 18:02:00,53.1,10.1,29.85,North,0,3.1,7.8,18,0.00,,,0.00,WUHU216HW,2013-04-16 01:02:00,
2013-04-15 18:07:00,52.7,9.7,29.85,NNW,338,3.4,6.9,18,0.00,,,0.00,WUHU216HW,2013-04-16 01:07:00,
2013-04-15 18:12:00,52.2,14.2,29.85,NE,45,2.9,5.8,22,0.00,,,0.00,WUHU216HW,2013-04-16 01:12:00,
2013-04-15 18:17:00,50.9,15.0,29.85,WSW,248,3.4,8.1,24,0.00,,,0.00,WUHU216HW,2013-04-16 01:17:00,
2013-04-15 18:22:00,50.4,14.6,29.85,WNW,293,5.4,8.1,24,0.00,,,0.00,WUHU216HW,2013-04-16 01:22:00,
2013-04-15 18:27:00,50.2,14.4,29.85,North,0,3.4,6.7,24,0.00,,,0.00,WUHU216HW,2013-04-16 01:27:00,
2013-04-15 18:32:00,50.2,14.4,29.85,NNE,23,2.9,8.3,24,0.00,,,0.00,WUHU216HW,2013-04-16 01:32:00,
2013-04-15 18:37:00,50.0,14.3,29.85,NW,315,5.1,8.3,24,0.00,,,0.00,WUHU216HW,2013-04-16 01:37:00,
2013-04-15 18:42:00,49.9,13.2,29.85,West,270,3.4,6.9,23,0.00,,,0.00,WUHU216HW,2013-04-16 01:42:00,
2013-04-15 18:47:00,49.5,12.9,29.85,West,270,4.0,5.8,23,0.00,,,0.00,WUHU216HW,2013-04-16 01:47:00,
2013-04-15 18:52:00,49.3,12.8,29.85,North,0,2.7,5.8,23,0.00,,,0.00,WUHU216HW,2013-04-16 01:52:00,
2013-04-15 18:57:00,49.0,12.4,29.85,WNW,293,1.6,6.3,23,0.00,,,0.00,WUHU216HW,2013-04-16 01:57:00,
2013-04-15 19:02:00,48.6,12.2,29.85,NNE,23,2.0,6.3,23,0.00,,,0.00,WUHU216HW,2013-04-16 02:02:00,
2013-04-15 19:07:00,48.2,12.8,29.85,West,270,3.1,5.4,24,0.00,,,0.00,WUHU216HW,2013-04-16 02:07:00,
2013-04-15 19:12:00,47.7,14.1,29.85,WNW,293,3.8,6.3,26,0.00,,,0.00,WUHU216HW,2013-04-16 02:12:00,
2013-04-15 19:17:00,47.2,14.6,29.84,WNW,293,2.9,6.3,27,0.00,,,0.00,WUHU216HW,2013-04-16 02:17:00,
2013-04-15 19:22:00,46.6,14.1,29.84,WSW,248,4.7,6.3,27,0.00,,,0.00,WUHU216HW,2013-04-16 02:22:00,
2013-04-15 19:27:00,46.3,13.9,29.84,WNW,293,2.7,6.9,27,0.00,,,0.00,WUHU216HW,2013-04-16 02:27:00,
2013-04-15 19:32:00,45.7,13.3,29.84,North,0,2.7,6.9,27,0.00,,,0.00,WUHU216HW,2013-04-16 02:32:00,
2013-04-15 19:37:00,45.4,14.0,29.84,North,0,3.1,6.0,28,0.00,,,0.00,WUHU216HW,2013-04-16 02:37:00,
2013-04-15 19:42:00,44.6,15.1,29.84,NW,315,2.5,6.0,30,0.00,,,0.00,WUHU216HW,2013-04-16 02:42:00,
2013-04-15 19:47:00,43.7,15.7,29.84,North,0,5.1,6.0,32,0.00,,,0.00,WUHU216HW,2013-04-16 02:47:00,
2013-04-15 19:52:00,43.0,15.7,29.84,NNW,338,2.7,5.6,33,0.00,,,0.00,WUHU216HW,2013-04-16 02:52:00,
2013-04-15 19:57:00,42.5,17.8,29.84,WNW,293,4.3,8.5,37,0.00,,,0.00,WUHU216HW,2013-04-16 02:57:00,
2013-04-15 20:02:00,41.9,18.7,29.84,NNW,338,3.6,8.5,39,0.00,,,0.00,WUHU216HW,2013-04-16 03:02:00,
2013-04-15 20:07:00,41.4,19.4,29.84,NE,45,3.4,10.3,41,0.00,,,0.00,WUHU216HW,2013-04-16 03:07:00,
2013-04-15 20:12:00,40.7,20.4,29.84,West,270,9.4,10.3,44,0.00,,,0.00,WUHU216HW,2013-04-16 03:12:00,
2013-04-15 20:17:00,40.5,18.1,29.84,NNW,338,1.8,9.4,40,0.00,,,0.00,WUHU216HW,2013-04-16 03:17:00,
2013-04-15 20:22:00,40.7,17.6,29.84,North,0,5.6,9.4,39,0.00,,,0.00,WUHU216HW,2013-04-16 03:22:00,
2013-04-15 20:27:00,41.0,17.3,29.84,West,270,9.2,9.2,38,0.00,,,0.00,WUHU216HW,2013-04-16 03:27:00,
2013-04-15 20:32:00,41.0,16.6,29.84,WNW,293,5.8,9.2,37,0.00,,,0.00,WUHU216HW,2013-04-16 03:32:00,
2013-04-15 20:37:00,41.0,16.6,29.84,SSW,203,5.6,9.2,37,0.00,,,0.00,WUHU216HW,2013-04-16 03:37:00,
2013-04-15 20:42:00,41.0,16.6,29.84,WSW,248,7.6,7.6,37,0.00,,,0.00,WUHU216HW,2013-04-16 03:42:00,
2013-04-15 20:47:00,41.0,15.9,29.84,WNW,293,4.0,10.5,36,0.00,,,0.00,WUHU216HW,2013-04-16 03:47:00,
2013-04-15 20:52:00,41.0,16.6,29.84,NW,315,5.4,14.3,37,0.00,,,0.00,WUHU216HW,2013-04-16 03:52:00,
2013-04-15 20:57:00,40.9,17.7,29.84,WSW,248,4.7,14.3,39,0.00,,,0.00,WUHU216HW,2013-04-16 03:57:00,
2013-04-15 21:00:00,40.7,17.6,29.84,West,270,8.1,8.9,39,0.00,,,0.00,WUHU216HW,2013-04-16 04:00:00,
2013-04-15 21:05:00,40.3,18.5,29.85,WNW,293,2.5,8.5,41,0.00,,,0.00,WUHU216HW,2013-04-16 04:05:00,
2013-04-15 21:10:00,39.8,21.6,29.84,NNW,338,6.7,9.4,48,0.00,,,0.00,WUHU216HW,2013-04-16 04:10:00,
2013-04-15 21:15:00,39.2,19.5,29.84,North,0,2.9,9.4,45,0.00,,,0.00,WUHU216HW,2013-04-16 04:15:00,
2013-04-15 21:20:00,39.2,20.6,29.84,South,180,6.0,11.4,47,0.00,,,0.00,WUHU216HW,2013-04-16 04:20:00,
2013-04-15 21:25:00,39.2,19.5,29.84,NNW,338,5.4,11.4,45,0.00,,,0.00,WUHU216HW,2013-04-16 04:25:00,
2013-04-15 21:30:00,39.2,19.5,29.84,WNW,293,8.1,8.3,45,0.00,,,0.00,WUHU216HW,2013-04-16 04:30:00,
2013-04-15 21:35:00,39.4,18.1,29.83,WNW,293,8.3,10.1,42,0.00,,,0.00,WUHU216HW,2013-04-16 04:35:00,
2013-04-15 21:40:00,40.0,16.9,29.83,NNW,338,5.4,10.1,39,0.00,,,0.00,WUHU216HW,2013-04-16 04:40:00,
2013-04-15 21:45:00,40.3,15.9,29.83,WNW,293,7.4,11.4,37,0.00,,,0.00,WUHU216HW,2013-04-16 04:45:00,
2013-04-15 21:50:00,40.3,15.9,29.83,West,270,6.3,11.4,37,0.00,,,0.00,WUHU216HW,2013-04-16 04:50:00,
2013-04-15 21:55:00,40.1,16.5,29.83,SSW,203,3.4,7.6,38,0.00,,,0.00,WUHU216HW,2013-04-16 04:55:00,
2013-04-15 22:00:00,40.0,16.3,29.83,SSW,203,2.7,11.4,38,0.00,,,0.00,WUHU216HW,2013-04-16 05:00:00,
2013-04-15 22:05:00,40.0,16.3,29.83,WNW,293,4.5,11.4,38,0.00,,,0.00,WUHU216HW,2013-04-16 05:05:00,
2013-04-15 22:10:00,39.8,16.1,29.83,NNW,338,6.0,8.1,38,0.00,,,0.00,WUHU216HW,2013-04-16 05:10:00,
2013-04-15 22:15:00,39.8,15.5,29.84,West,270,6.9,7.6,37,0.00,,,0.00,WUHU216HW,2013-04-16 05:15:00,
2013-04-15 22:20:00,40.0,14.9,29.84,NNW,338,4.0,11.4,36,0.00,,,0.00,WUHU216HW,2013-04-16 05:20:00,
2013-04-15 22:25:00,39.8,14.9,29.84,ESE,113,4.7,11.4,36,0.00,,,0.00,WUHU216HW,2013-04-16 05:25:00,
2013-04-15 22:30:00,39.8,14.9,29.84,NNW,338,6.9,9.6,36,0.00,,,0.00,WUHU216HW,2013-04-16 05:30:00,
2013-04-15 22:35:00,39.6,14.7,29.84,WNW,293,4.5,9.8,36,0.00,,,0.00,WUHU216HW,2013-04-16 05:35:00,
2013-04-15 22:40:00,39.6,14.7,29.84,WNW,293,5.6,13.9,36,0.00,,,0.00,WUHU216HW,2013-04-16 05:40:00,
2013-04-15 22:45:00,39.4,13.9,29.84,West,270,2.5,13.9,35,0.00,,,0.00,WUHU216HW,2013-04-16 05:45:00,
2013-04-15 22:50:00,39.2,12.4,29.83,WNW,293,6.7,11.0,33,0.00,,,0.00,WUHU216HW,2013-04-16 05:50:00,
2013-04-15 22:55:00,39.4,11.9,29.83,NW,315,2.5,11.0,32,0.00,,,0.00,WUHU216HW,2013-04-16 05:55:00,
2013-04-15 23:00:00,39.4,11.3,29.83,North,0,4.7,12.3,31,0.00,,,0.00,WUHU216HW,2013-04-16 06:00:00,
2013-04-15 23:05:00,39.4,11.9,29.84,West,270,4.9,12.3,32,0.00,,,0.00,WUHU216HW,2013-04-16 06:05:00,
2013-04-15 23:10:00,39.1,15.5,29.84,WNW,293,2.2,7.6,38,0.00,,,0.00,WUHU216HW,2013-04-16 06:10:00,
2013-04-15 23:15:00,38.3,14.9,29.84,NNW,338,1.8,6.9,38,0.00,,,0.00,WUHU216HW,2013-04-16 06:15:00,
2013-04-15 23:20:00,38.0,15.8,29.84,North,0,5.8,12.8,40,0.00,,,0.00,WUHU216HW,2013-04-16 06:20:00,
2013-04-15 23:25:00,37.8,15.7,29.84,North,0,3.4,12.8,40,0.00,,,0.00,WUHU216HW,2013-04-16 06:25:00,
2013-04-15 23:30:00,37.4,17.9,29.84,North,0,4.0,12.1,45,0.00,,,0.00,WUHU216HW,2013-04-16 06:30:00,
2013-04-15 23:35:00,36.7,20.7,29.84,North,0,5.8,9.6,52,0.00,,,0.00,WUHU216HW,2013-04-16 06:35:00,
2013-04-15 23:40:00,36.2,18.4,29.83,North,0,8.9,9.6,48,0.00,,,0.00,WUHU216HW,2013-04-16 06:40:00,
2013-04-15 23:45:00,36.0,17.1,29.83,North,0,4.0,8.9,46,0.00,,,0.00,WUHU216HW,2013-04-16 06:45:00,
2013-04-15 23:50:00,36.0,14.5,29.83,North,0,4.0,8.7,41,0.00,,,0.00,WUHU216HW,2013-04-16 06:50:00,
2013-04-15 23:55:00,36.4,11.7,29.83,NE,45,2.0,8.7,36,0.00,,,0.00,WUHU216HW,2013-04-16 06:55:00,